Flag for U.S.A. Weather past 2 weeks in Spokane, Washington, U.S.A.

Now
73 °F

Sunny.


Feels Like: 74 °F
Forecast: 42 / 75 °F
Wind: 3 mph from North

Location: Felts Field

Current Time: May 4, 2015 at 1:20:20 PM

Latest Report: May 4, 2015 at 12:53 PM


Visibility: 10 mi

Pressure: 29.83 "Hg

Humidity: 16%

Dew point: 24 °F

Location of SpokaneLocation

Historic Weather in Spokane — Graph

°F

Spokane temperature yesterday

Maximum temperature yesterday: 71 °F (at 4:53 PM)
Minimum temperature yesterday: 37 °F (at 4:53 AM)
Average temperature yesterday: 54 °F

Past Weeks' High & Low Weather Summary

 TemperatureHumidityPressure
High81 °F (Apr 28, 2:53 PM)100% (Apr 26, 3:57 AM)30.37 "Hg (Apr 26, 3:57 AM)
Low33 °F (Apr 26, 4:53 AM)17% (Apr 28, 4:53 PM)29.69 "Hg (Apr 24, 2:53 AM)
Average53 °F52%29.96 "Hg
* Reported Apr 19 11:53 AM — May 4 11:53 AM, Spokane, Weather by CustomWeather, © 2015

Note: Actual official high and low records may vary slightly from our data, if they occured in-between our weather recording intervals... More about our weather records

Advertising

Spokane weather history for previous 24 hours

 ConditionsComfort  
Time TempWeatherWind HumidityBarometerVisibility
11:53 AM
Mon, May 4
71 °FSunny.6 mph20%29.85 "Hg10 mi
10:53 AM66 °FSunny.6 mph24%29.88 "Hg10 mi
9:53 AM61 °FSunny.8 mph32%29.90 "Hg10 mi
8:53 AM55 °FSunny.5 mph42%29.91 "Hg10 mi
7:53 AM48 °FSunny.3 mph59%29.92 "Hg10 mi
6:53 AM44 °FSunny.3 mph68%29.90 "Hg10 mi
5:53 AM40 °FClear.3 mph80%29.90 "Hg10 mi
4:53 AM39 °FClear.No wind79%29.89 "Hg10 mi
3:53 AM39 °FClear.No wind79%29.88 "Hg10 mi
2:53 AM41 °FClear.No wind74%29.88 "Hg10 mi
1:53 AM45 °FClear.5 mph63%29.87 "Hg10 mi
12:53 AM44 °FClear.3 mph63%29.88 "Hg10 mi
11:53 PM
Sun, May 3
46 °FClear.No wind58%29.88 "Hg10 mi
10:53 PM48 °FClear.No wind61%29.88 "Hg10 mi
9:53 PM49 °FClear.5 mph55%29.88 "Hg10 mi
8:53 PM53 °FSunny.No wind43%29.88 "Hg10 mi
7:53 PM57 °FSunny.3 mph39%29.87 "Hg10 mi
6:53 PM67 °FSunny.3 mph21%29.87 "Hg10 mi
5:53 PM69 °FSunny.5 mph19%29.88 "Hg10 mi
4:53 PM71 °FSunny.No wind19%29.89 "Hg10 mi
3:53 PM69 °FSunny.7 mph20%29.91 "Hg10 mi
2:53 PM69 °FSunny.5 mph18%29.93 "Hg10 mi
1:53 PM69 °FSunny.3 mph21%29.95 "Hg10 mi
Weather by CustomWeather, © 2015

See weather overviewHow to use our weather pages